Showing default

OPS 7869 (DMSP 4B F1), 3266

Orbit data source: Space-Track

OPS 7869 (DMSP 4B F1), 3266 is a payload satellite owned by SAMSO (US) in SSO that was launched on Thu, 23 May 1968 UTC via a THOR BURNER 2 launch vehicle from the Air Force Western Test Range (AFWTR). Payload-class satellites include a variety of spacecraft equipped with specific instruments for various scientific and technological missions. These include communications satellites like Starlink; space stations such as the ISS; scientific satellites like the Hubble; Earth observation satellites from companies like Planet Labs, Umbra, and HawkEye 360; GPS; miniature CubeSats for education and research; and military/defense satellites.

Loading next visibility...
Identifier
3266, 1968-042A
Orbit
SSO
Country
Flag of USUS
Related business
Manufacturer
RCA/East Windsor
Mission
Non-operational spacecraft
Bus & Motor
DMSP BLOCK 4B, Unknown motor
Mass
79 kg wet, 79 kg dry
Launch date (UTC)
1968-05-23 (57 years ago)
Launch vehicle
THOR BURNER 2
Launch site
Air Force Western Test Range (AFWTR)
Object type
Payload
Rocket body
Debris
Shape & HBR
Unknown
Radar Cross Section
Medium (>0.1 m² and <1 m²)

Expand to show TLE details & history
Last TLE update: 10 hours ago

TLE from 10 hours ago
0 OPS 7869 (DMSP 4B F1)
1  3266U 68042A   25294.74915001  .00000171  00000-0  10709-3 0  9995
2  3266  98.5636 129.8904 0051409 267.8436  91.6851 14.15826587879397
Epoch: 2025-10-21T17:58Z
TLE epoch observation values (Epoch: 2025-10-21T17:58:46.560Z)
Latitude
-0.00007°
Longitude
-170.23623°
Altitude
843.697 km
Speed
7.43 km/s
True Right ascension
08h 39m 33s
True Declination
0° 00' 00"
Sunlit
Object was in daylight at epoch
Visualization orbit readout
Latitude
Unknown
Longitude
Unknown
Altitude
Unknown
Speed
Unknown
Apparent Right ascension
Unknown
Apparent Declination
Unknown
Sunlit
N/A
Visualization observer readout
Local Sidereal Time
22:37:03
Azimuth
Unknown
Elevation
Unknown
Doppler factor
Unknown
Orbital elements
Apogee altitude
873.749 km
Perigee altitude
799.568 km
Semi-major axis
7,214.796 km
Eccentricity
0.00514
Inclination
98.5636°
RAAN
129.8904°
Arg. of periapsis
267.8436°
True anomaly
92.27383°
Mean anomaly
91.6851°
Eccentric anomaly
91.97948°
Mean motion
3.54166 °/min
Orbital period
101.65 mins
BSTAR
0.00010709
Loading maneuver chart data...
Computing Atmospheric mass density...
Loading historical data...
Loading historical data...
Loading historical data...
Loading historical data...
Loading historical data...
Loading historical data...
Loading historical data...
Other satellites on launch #42 in the year 1968 (1968-05-23 UTC)

Documentation

Showing up to 5 results
|